Regional Weather Roundup
Issued by NWS Portland, ME

Home | Current Version | Previous Version | Text Only | Print | Product List | Glossary On
Versions: 1 2 3 4 5 6 7 8 9 10 11 12 13 14 15 16 17 18 19 20 21 22 23 24 25 26 27 28 29 30 31 32 33 34 35 36 37 38 39 40 41 42 43 44 45 46 47 48 49 50
000
ASUS41 KGYX 210205
RWRGYX
WEATHER ROUNDUP FOR MAINE AND NEW HAMPSHIRE
NATIONAL WEATHER SERVICE GRAY ME
1000 PM EDT WED SEP 20 2017

MEZ002-005-006-010-012-015-018-020-021-024-026-027-029-210300-
MAINE

CITY           SKY/WX    TMP DP  RH WIND       PRES   REMARKS
PORTLAND       PTCLDY    70  64  81 N10       29.95R
SANFORD        CLOUDY    69  65  86 N12       29.95R
BAR HARBOR     CLOUDY    69  66  90 NE10      29.97R
WISCASSET      CLOUDY    72  64  76 VRB3      29.96R
ROCKLAND       CLOUDY    69  64  84 NE8G20    29.95R
FRYEBURG       CLOUDY    66  66 100 NW3       30.00S
LEWISTONAUBURN PTCLDY    69  65  86 N9        29.98S
AUGUSTA        PTCLDY    69  63  81 N14       29.99R
WATERVILLE     PTCLDY    68  63  84 N9        29.97S
BANGOR         MOCLDY    69  63  81 N9        29.99S
GREENVILLE       N/A     64  58  80 N8        30.05R
MILLINOCKET    CLOUDY    62  60  93 N3        30.05R
HOULTON        CLOUDY    59  56  89 N9        30.05R
PRESQUE ISLE   CLEAR     59  49  69 NE7       30.11R
FRENCHVILLE    CLEAR     54  45  71 N8        30.11R
CARIBOU        CLEAR     58  46  64 N7        30.10R
$$

NHZ002-005-008-009-011-012-014-210300-
NEW HAMPSHIRE

CITY           SKY/WX    TMP DP  RH WIND       PRES   REMARKS
PORTSMOUTH     MOCLDY    71  65  80 N10       29.91R
ROCHESTER      MOCLDY    70  63  78 N10       29.94S
NASHUA         CLOUDY    71  66  84 N7        29.93S
MANCHESTER     CLOUDY    71  66  84 N10       29.92S
CONCORD        CLOUDY    68  64  87 NW5       29.96S
LACONIA        CLOUDY    67  64  90 VRB3      29.98S
PLYMOUTH       MOCLDY    65  63  93 CALM      29.99S
BERLIN         CLOUDY    62  58  86 CALM      30.04S
WHITEFIELD     CLOUDY    64  60  87 CALM      30.03R
JAFFREY        MOCLDY    67  66  97 CALM      29.98S
KEENE          MOCLDY    66  63  90 NE3       29.97S
LEBANON        MOCLDY    64  63  96 CALM      29.99R
MT WASHINGTON  FOG       50  50 100 NE35G45     N/A  VSB 0
$$

VTZ005-007-008-210300-
VERMONT

CITY           SKY/WX    TMP DP  RH WIND       PRES   REMARKS
ST JOHNSBURY     N/A     66  65  96 MISG      30.01R
MONTPELIER     CLOUDY    63  62  97 CALM      30.07R
BURLINGTON     CLOUDY    70  66  87 N7        30.03R
$$

MAZ007-012-024-CTZ003-RIZ002-NYZ038-NYZ072-210300-
SOUTHERN NEW ENGLAND AND NY

CITY           SKY/WX    TMP DP  RH WIND       PRES   REMARKS
BOSTON         CLOUDY    71  66  84 N18G26    29.88R
WORCESTER      CLOUDY    68  62  81 N15G21    29.93S
NANTUCKET      LGT RAIN  66  66 100 N35G47    29.66S
PROVIDENCE     CLOUDY    71  68  90 N16       29.86R
HARTFORD       CLOUDY    72  64  76 N7        29.92F
ALBANY         CLOUDY    70  63  78 N6        29.99R
NEW YORK CITY  CLOUDY    76  65  68 N12       29.91S
$$

ANZ081-ANZ082-ANZ150-NHZ014-MEZ023>029-210300-
COASTAL MARINE OBSERVATIONS

STATION/POSITION TIME  TEMP    WIND        PRES    WAVE
                       AIR SEA DIR/SP/G            HT/PER
                 (UTC) (F)     (DEG/KT/KT) (MB)    (FT/S)
MOUNT DESERT ROC 0200   60      20/ 18/ 19 1013.6R
MATINICUS ROCK   0100   61      30/ 18/ 19 1012.5R
ISLE OF SHOALS   0100   66      20/ 16/ 19 1011.9F
JEFFREYS LEDGE   0106      63                N/A     8/12
GEORGES BANK BUO 0050   77 67               999.5   19/14
$$

.............KEY..............
   WCI - WIND CHILL
   TC  - TEMPERATURE IN CELSIUS
   VSB - VISIBILITY IN MILES
   HX  - HEAT INDEX
   FAIR- INDICATES FEW OR NO CLOUDS BELOW 12,000 FT, WITH NO
         SIGNIFICANT WEATHER AND/OR OBSTRUCTIONS TO VISIBILITY.





USA.gov is the U.S. government's official web portal to all federal, state and local government web resources and services.